User: anonymous   Login
Location: Unspecified
(0.0000°N, 0.0000°E)
Time: 07:36:14
(UTC+02:00)
Language:

YAOGAN 1 - Orbit

View from above orbital plane
View from above orbital plane
View from above satellite
View from above satellite

Ground track
Ground track

The orbit data is extracted from the following two-line orbital elements,

1 29092U 06015A   15145.57335932  .00000259  00000-0  38999-4 0  9995
2 29092 097.9957 145.3984 0001537 092.3088 018.8502 14.82385680490709
Epoch (UTC): 25 May 2015 13:45:38
Eccentricity: 0.0001537
inclination: 97.9957°
perigee height: 621 km
apogee height: 623 km
right ascension of ascending node: 145.3984°
argument of perigee: 92.3088°
revolutions per day: 14.82385680
mean anomaly at epoch: 18.8502°
orbit number at epoch: 49070

The dashed part of the orbit path shows where the satellite is in the earth's shadow,  

DLR